Regional Weather Roundup
Issued by NWS Newport/Morehead, NC

Current Version | Previous Version | Graphics & Text | Print | Product List | Glossary On
Versions: 1 2 3 4 5 6 7 8 9 10 11 12 13 14 15 16 17 18 19 20 21 22 23 24 25 26 27 28 29 30 31 32 33 34 35 36 37 38 39 40 41 42 43 44 45 46 47 48 49 50
000 ASUS42 KMHX 052213 RWRMHX WEATHER ROUNDUP FOR EASTERN NORTH CAROLINA NATIONAL WEATHER SERVICE NEWPORT/MOREHEAD CITY NC 500 PM EST FRI FEB 05 2016 NOTE: "FAIR" INDICATES FEW OR NO CLOUDS BELOW 12,000 FEET WITH NO SIGNIFICANT WEATHER AND/OR OBSTRUCTIONS TO VISIBILITY NCZ015>017-031-032-045>047-102-103-052300- NORTH COAST CITY SKY/WX TMP DP RH WIND PRES REMARKS EDENTON CLEAR 46 30 54 N8 30.32R ELIZABETH CITY CLEAR 43 28 55 N10 30.31R KITTY HAWK CLEAR 42 29 60 N9 30.30R MANTEO CLEAR 41 29 60 N15G21 30.31R $$ NCZ045>047-081-094-103-104-052300- CENTRAL COAST CITY SKY/WX TMP DP RH WIND PRES REMARKS FRISCO CLEAR 43 30 60 VRB7G22 30.29R SWANQUARTER N/A 43 N/A N/A N5 30.27S $$ NCZ095-097-098-100-101-052300- SOUTHERN COAST CITY SKY/WX TMP DP RH WIND PRES REMARKS BEAUFORT CLEAR 44 31 60 N8 30.31R CEDAR ISLAND N/A 45 N/A N/A N16 30.36S JACKSONVILLE PTCLDY 47 28 47 N13 30.30R PINEY ISLAND CLEAR N/A N/A N/A N10 30.30S WILMINGTON CLEAR 48 29 47 N10 30.31R $$ NCZ011>013-027>030-043-044-078>080-089-090>093-098-052300- COASTAL PLAIN CITY SKY/WX TMP DP RH WIND PRES REMARKS AHOSKIE CLEAR 43 25 48 NW3 30.32R CLINTON CLEAR 48 25 40 NW5 30.32S ELIZABETHTOWN CLEAR 49 23 36 N5 30.31R GOLDSBORO CLEAR 46 21 36 N12 30.30R GREENVILLE CLEAR 45 28 53 N7 30.32R HAVELOCK CLEAR 45 28 51 N9 30.31R KENANSVILLE N/A 46 24 41 NW9 30.32R KINSTON CLEAR 46 27 46 N7 30.33R NEW BERN CLEAR 45 28 51 N9 30.32R RICHLANDS PTCLDY 46 25 42 N9 30.31R ROCKY MOUNT CLEAR 45 24 43 N6 30.32R WASHINGTON CLEAR 44 28 51 CALM 30.31S WHITEVILLE CLEAR 48 24 38 N3 30.31R $$ AMZ130-135-150-152-154-156-158-170-250-252-270-ANZ085-086-088-633-658-670-052300- MARINE OBSERVATIONS STATION/POSITION TIME TEMP WIND PRES WAVE SWELL AIR SEA DIR/SP/G HT/PER HT/PER (UTC) (F) (DEG/KT/KT) (MB) (FT/S) (FT/S) CHESAPEAKE LIGHT 2200 41 340/ 22/ 23 1026.1 64 E VA BEACH 2150 44 54 350/ 23/ 29 1023.7 12/10 7/10 DUCK 2100 42 45 10/ 23/ 27 1023.8 2 E DUCK 2111 45 N/A 7/ 9 2/11 OREGON INLET 2100 42 48 350/ 14/ 19 1025.1 13E OREGON INLT 2200 46 N/A 10/10 2/11 HATTERAS CG 2100 44 54 350/ 17/ 21 1025.1 DIAMOND BUOY 2150 70 360/ 21/ 27 1025.1 8/10 5/10 CAPE LOOKOUT NOT AVBL BEAUFORT LAB 2100 45 53 350/ 11/ 14 1024.8 30 SE NEW RVR IN 2108 47 65 1024.1 30 SE NEW RVR IN 2125 65 N/A 4/ 5 27 SE WRIGHTSVLE 2108 48 360/ 14/ 21 1024.8 5 SE WRIGHTSVLE 2108 48 55 30/ 12/ 16 1025.7 225 S CAPE HAT 2150 59 69 360/ 23/ 29 N/A 12/ 8 41 SE CHARLESTON 2150 49 68 10/ 17/ 21 1025.8 5/ 7 $$

USA.gov is the U.S. government's official web portal to all federal, state and local government web resources and services.